Location: Prague
(50.0830°N, 14.4670°E)
Time: 23:57:29
(UTC+02:00)

SPROUT - Visible Passes

Search period start: 31 March 2023 00:00
Search period end: 10 April 2023 00:00
Orbit: 564 x 578 km, 98.0° (Epoch: 31 March)

Date Brightness Start Highest point End Pass type
(mag) Time Alt. Az. Time Alt. Az. Time Alt. Az.
31 Mar ? 00:57:20 13° NNE 00:57:20 13° NNE 00:57:59 10° NNE visible
31 Mar ? 02:33:29 13° NNW 02:33:29 13° NNW 02:34:02 10° NNW visible
01 Apr ? 00:59:25 13° NNE 00:59:25 13° NNE 01:00:13 10° NNE visible
01 Apr ? 02:35:33 14° NNW 02:35:33 14° NNW 02:36:11 10° NNW visible
02 Apr ? 01:01:27 14° NNE 01:01:27 14° NNE 01:02:23 10° NNE visible
02 Apr ? 02:37:35 15° NNW 02:37:35 15° NNW 02:38:17 10° NNW visible
03 Apr ? 01:03:25 15° NNE 01:03:25 15° NNE 01:04:30 10° NNE visible
03 Apr ? 02:39:32 15° NNW 02:39:32 15° NNW 02:40:20 10° NNW visible
04 Apr ? 01:05:19 15° NNE 01:05:19 15° NNE 01:06:33 10° NNE visible
04 Apr ? 02:41:27 16° NNW 02:41:27 16° NNW 02:42:19 10° NNW visible
05 Apr ? 01:07:10 16° NNE 01:07:10 16° NNE 01:08:31 10° NNE visible
05 Apr ? 02:43:17 16° NNW 02:43:17 16° NNW 02:44:15 10° NNW visible
06 Apr ? 01:08:57 17° NNE 01:08:57 17° NNE 01:10:27 10° NNE visible
06 Apr ? 02:45:04 17° NNW 02:45:04 17° NNW 02:46:07 10° NNW visible
07 Apr ? 01:10:41 18° NNE 01:10:41 18° NNE 01:12:19 10° NNE visible
07 Apr ? 02:46:48 17° NNW 02:46:48 17° NNW 02:47:55 10° NNW visible
08 Apr ? 01:12:21 19° NNE 01:12:21 19° NNE 01:14:07 10° N visible
08 Apr ? 02:48:29 18° NW 02:48:29 18° NW 02:49:40 10° NNW visible
09 Apr ? 01:13:58 20° NE 01:13:58 20° NE 01:15:51 10° N visible
09 Apr ? 02:50:05 19° NW 02:50:05 19° NW 02:51:22 10° NNW visible
